Weather History for Selawik, AK

Change the Weather History Date:

Sunday, November 25, 2012

  Actual Average Record
Temperature  
Mean Temperature -6 °F -  
Max Temperature -4 °F 6 °F 33 °F (2002)
Min Temperature -7 °F -2 °F -23 °F (2011)
Degree Days  
Heating Degree Days 70    
Moisture  
Dew Point -22 °F    
Average Humidity 53    
Maximum Humidity 92    
Minimum Humidity 4    
Precipitation  
Precipitation 0.00 in - - ()
Sea Level Pressure  
Sea Level Pressure 30.43 in    
Wind  
Wind Speed 2 mph (ENE)    
Max Wind Speed 8 mph    
Max Gust Speed -    
Visibility 10 miles    
Events      
Averages and records for this station are not official NWS values.
T = Trace of Precipitation, MM = Missing Value Source: NWS Daily Summary

Daily Weather History Graph

Daily Weather History Graph

Search for Another Location

Airport:

Trip Planner

Search our weather history database for the weather conditions in past years. The results will help you decide how hot, cold, wet, or windy it might be!

Date:

Astronomy

Nov. 25, 2012 Rise Set
Actual Time 11:17 AM AKST 3:35 PM AKST
Civil Twilight 9:55 AM AKST 4:58 PM AKST
Nautical Twilight 8:42 AM AKST 6:11 PM AKST
Astronomical Twilight 7:38 AM AKST 7:14 PM AKST
Moon 2:56 PM AKST (11/25) 7:39 AM AKST (11/25)
Length of Visible Light 7h 03m
Length of Day
4h 17m
Waxing Gibbous, 93% of the Moon is Illuminated
Nov 25
Waxing Gibbous
Nov 28
Full
Dec 6
Last Quarter
Dec 12
New
Dec 19
First Quarter

Hourly Weather History & Observations

Time (AKST) Temp. Windchill Dew Point Humidity Pressure Visibility Wind Dir Wind Speed Gust Speed Precip Events Conditions
12:16 AM -5.8 °F - - N/A% 30.37 in 10.0 mi Calm Calm - N/A   Clear
12:36 AM -5.8 °F - -29.2 °F 32% 30.37 in 10.0 mi Calm Calm - N/A   Clear
12:56 AM -5.8 °F - -29.2 °F 32% 30.37 in 9.0 mi Calm Calm - N/A   Clear
1:16 AM -5.8 °F - -27.4 °F 35% 30.37 in 10.0 mi Calm Calm - N/A   Clear
1:36 AM -5.8 °F - -22.0 °F 46% 30.38 in 10.0 mi Calm Calm - N/A   Clear
1:56 AM -5.8 °F - -18.4 °F 55% 30.38 in 8.0 mi Calm Calm - N/A   Clear
2:16 AM -7.6 °F - -16.6 °F 65% 30.38 in 10.0 mi Calm Calm - N/A   Clear
2:36 AM -5.8 °F - -14.8 °F 65% 30.39 in 10.0 mi Calm Calm - N/A   Clear
2:56 AM -7.6 °F - -16.6 °F 65% 30.39 in 10.0 mi Calm Calm - N/A   Clear
3:16 AM -7.6 °F -16.5 °F -20.2 °F 54% 30.39 in 10.0 mi NE 3.5 mph - N/A   Clear
3:36 AM -7.6 °F - - N/A% 30.40 in 10.0 mi Calm Calm - N/A   Clear
3:56 AM -7.6 °F - -27.4 °F 38% 30.39 in 10.0 mi Calm Calm - N/A   Clear
4:16 AM -7.6 °F - -23.8 °F 45% 30.40 in 10.0 mi Calm Calm - N/A   Clear
4:36 AM -5.8 °F - -27.4 °F 35% 30.40 in 10.0 mi Calm Calm - N/A   Clear
4:56 AM -5.8 °F -14.5 °F -20.2 °F 50% 30.40 in 10.0 mi ENE 3.5 mph - N/A   Clear
5:16 AM -5.8 °F - -18.4 °F 55% 30.40 in 10.0 mi Calm Calm - N/A   Clear
5:36 AM -5.8 °F - -14.8 °F 65% 30.41 in 10.0 mi Calm Calm - N/A   Clear
5:56 AM -5.8 °F -14.5 °F -16.6 °F 60% 30.40 in 10.0 mi East 3.5 mph - N/A   Clear
6:16 AM -7.6 °F -16.5 °F -27.4 °F 38% 30.40 in 10.0 mi ESE 3.5 mph - N/A   Clear
6:36 AM -7.6 °F -16.5 °F - N/A% 30.40 in 10.0 mi ESE 3.5 mph - N/A   Clear
6:56 AM -7.6 °F -16.5 °F -29.2 °F 34% 30.41 in 10.0 mi ESE 3.5 mph - N/A   Clear
7:16 AM -7.6 °F - -25.6 °F 41% 30.41 in 10.0 mi Calm Calm - N/A   Clear
7:36 AM -7.6 °F - -29.2 °F 34% 30.42 in 10.0 mi Calm Calm - N/A   Clear
7:56 AM -7.6 °F -16.5 °F -23.8 °F 45% 30.42 in 10.0 mi East 3.5 mph - N/A   Clear
8:16 AM -7.6 °F - -18.4 °F 59% 30.42 in 10.0 mi Calm Calm - N/A   Clear
8:36 AM -7.6 °F -16.5 °F -16.6 °F 65% 30.42 in 10.0 mi East 3.5 mph - N/A   Clear
8:56 AM -7.6 °F - -16.6 °F 65% 30.42 in 10.0 mi Calm Calm - N/A   Clear
9:16 AM -7.6 °F - -14.8 °F 71% 30.42 in 10.0 mi Calm Calm - N/A   Clear
9:36 AM -7.6 °F - -16.6 °F 65% 30.42 in 10.0 mi Calm Calm - N/A   Clear
9:56 AM -7.6 °F - -16.6 °F 65% 30.42 in 10.0 mi Calm Calm - N/A   Clear
10:16 AM -7.6 °F -16.5 °F -11.2 °F 84% 30.43 in 10.0 mi ENE 3.5 mph - N/A   Clear
10:36 AM -7.6 °F -16.5 °F -18.4 °F 59% 30.43 in 10.0 mi ENE 3.5 mph - N/A   Clear
10:56 AM -7.6 °F -16.5 °F -9.4 °F 92% 30.44 in 10.0 mi ENE 3.5 mph - N/A   Clear
11:16 AM -5.8 °F -14.5 °F - N/A% 30.44 in 10.0 mi East 3.5 mph - N/A   Clear
11:36 AM -5.8 °F -16.7 °F -27.4 °F 35% 30.44 in 10.0 mi ENE 4.6 mph - N/A   Clear
11:56 AM -5.8 °F -18.4 °F -23.8 °F 42% 30.45 in 10.0 mi East 5.8 mph - N/A   Clear
12:16 PM -7.6 °F -20.6 °F -27.4 °F 38% 30.45 in 10.0 mi East 5.8 mph - N/A   Clear
12:36 PM -7.6 °F -22.1 °F -23.8 °F 45% 30.45 in 10.0 mi ENE 6.9 mph - N/A   Clear
12:56 PM -7.6 °F -20.6 °F -18.4 °F 59% 30.45 in 10.0 mi East 5.8 mph - N/A   Clear
1:16 PM -7.6 °F -23.4 °F -14.8 °F 71% 30.45 in 10.0 mi East 8.1 mph - N/A   Clear
1:36 PM -7.6 °F -20.6 °F -16.6 °F 65% 30.45 in 10.0 mi East 5.8 mph - N/A   Clear
1:56 PM -7.6 °F -18.8 °F -14.8 °F 71% 30.45 in 10.0 mi East 4.6 mph - N/A   Clear
2:16 PM -7.6 °F -18.8 °F -14.8 °F 71% 30.45 in 10.0 mi East 4.6 mph - N/A   Clear
2:36 PM -7.6 °F -20.6 °F -14.8 °F 71% 30.45 in 10.0 mi ENE 5.8 mph - N/A   Clear
2:56 PM -5.8 °F -16.7 °F -11.2 °F 77% 30.45 in 10.0 mi ENE 4.6 mph - N/A   Clear
3:16 PM -5.8 °F -14.5 °F -18.4 °F 55% 30.45 in 10.0 mi ENE 3.5 mph - N/A   Clear
3:36 PM -7.6 °F -18.8 °F -108.4 °F 4% 30.45 in 10.0 mi NE 4.6 mph - N/A   Clear
3:56 PM -5.8 °F -18.4 °F - N/A% 30.46 in 10.0 mi ENE 5.8 mph - N/A   Clear
4:16 PM -5.8 °F -16.7 °F -29.2 °F 32% 30.45 in 10.0 mi ENE 4.6 mph - N/A   Clear
4:36 PM -5.8 °F -16.7 °F -22.0 °F 46% 30.45 in 10.0 mi ENE 4.6 mph - N/A   Clear
4:56 PM -5.8 °F -19.9 °F -23.8 °F 42% 30.45 in 10.0 mi ENE 6.9 mph - N/A   Clear
5:16 PM -4.0 °F -16.3 °F -23.8 °F 38% 30.45 in 10.0 mi ENE 5.8 mph - N/A   Clear
5:36 PM -5.8 °F -18.4 °F -18.4 °F 55% 30.45 in 10.0 mi ENE 5.8 mph - N/A   Clear
5:56 PM -5.8 °F -18.4 °F -13.0 °F 71% 30.46 in 10.0 mi ENE 5.8 mph - N/A   Clear
6:16 PM -5.8 °F -16.7 °F -16.6 °F 60% 30.45 in 10.0 mi ENE 4.6 mph - N/A   Clear
6:36 PM -5.8 °F -18.4 °F -11.2 °F 77% 30.45 in 10.0 mi ENE 5.8 mph - N/A   Clear
6:56 PM -5.8 °F -18.4 °F -14.8 °F 65% 30.45 in 10.0 mi ENE 5.8 mph - N/A   Clear
7:16 PM -5.8 °F -18.4 °F -25.6 °F 38% 30.45 in 10.0 mi NE 5.8 mph - N/A   Clear
7:36 PM -5.8 °F -18.4 °F - N/A% 30.45 in 10.0 mi ENE 5.8 mph - N/A   Clear
7:56 PM -5.8 °F -21.2 °F -23.8 °F 42% 30.44 in 10.0 mi ENE 8.1 mph - N/A   Clear
8:16 PM -5.8 °F -21.2 °F -20.2 °F 50% 30.45 in 10.0 mi ENE 8.1 mph - N/A   Clear
8:36 PM -5.8 °F -21.2 °F -27.4 °F 35% 30.45 in 10.0 mi ENE 8.1 mph - N/A   Clear
8:56 PM -5.8 °F -19.9 °F -23.8 °F 42% 30.45 in 10.0 mi ENE 6.9 mph - N/A   Clear
9:16 PM -5.8 °F -19.9 °F -16.6 °F 60% 30.45 in 10.0 mi ENE 6.9 mph - N/A   Clear
9:36 PM -5.8 °F -21.2 °F -11.2 °F 77% 30.45 in 10.0 mi ENE 8.1 mph - N/A   Clear
9:56 PM -5.8 °F -18.4 °F -14.8 °F 65% 30.45 in 10.0 mi ENE 5.8 mph - N/A   Clear
10:16 PM -5.8 °F -16.7 °F -14.8 °F 65% 30.45 in 10.0 mi ENE 4.6 mph - N/A   Clear
10:36 PM -5.8 °F -16.7 °F - N/A% 30.45 in 10.0 mi ENE 4.6 mph - N/A   Clear
10:56 PM -5.8 °F -18.4 °F -29.2 °F 32% 30.45 in 10.0 mi ENE 5.8 mph - N/A   Clear
11:16 PM -5.8 °F -18.4 °F -27.4 °F 35% 30.45 in 10.0 mi ENE 5.8 mph - N/A   Clear
11:36 PM -5.8 °F -18.4 °F -22.0 °F 46% 30.45 in 10.0 mi ENE 5.8 mph - N/A   Clear
11:56 PM -4.0 °F -17.8 °F -22.0 °F 42% 30.44 in 10.0 mi East 6.9 mph - N/A   Clear